General Mariano Matamoros Airport

Jump to: basic info | weather | frequencies | runways | comments

Related pages: nearby airports | nearby navaids | notams | map

Basic information (top)

Codes: CVJ MMCB
Location: lon 18.834801, lat -99.261299, elev 4,277 ft / 1,304 m msl
Status: medium_airport
Scheduled airline service: yes
Links: Wikipedia Mobile

Weather (top)

Current conditions (rec'd 2014/08/29 14:50Z):

MMCB 291450Z 00000KT 10SM FEW015 BKN200 24/16 A3009 RMK 8/108

Airport forecast (rec'd 2014/08/26 06:18Z):

TAF MMCB 260515Z 2606/2706 00000KT P6SM SCT030 BKN080 
      TEMPO 2606/2609 4SM TSRA BKN030CB OVC080 
     FM261000 00000KT 5SM HZ SCT015 
      TEMPO 2611/2615 3SM BR BKN010 
     FM261800 04007KT P6SM SCT030 BKN250 
     FM270500 00000KT P6SM SCT030 SCT080

Frequencies (top)

Verify before use: may be inaccurate or out of date.

APP: 128.9 MHz (TOLUCA APP)
TWR: 118.35 MHz (CUERNAVACA TWR)

Runways (top)

02/20: 9,439 x 148 ft (2,877 x 45 m) — paved — lighted — threshold 20 displaced 260 ft (79 m)

Latest comments (top)

No comments yet for General Mariano Matamoros Airport

More... (top)

See also NOTAMs and nearby airports and navaids, or visit the General Mariano Matamoros Airport page at the main OurAirports website..